Header for Extended Forecast Station List Page

Search by: ID | Name | Date | Parm | Value | Avg | % Avg
Sort by: ID | Name | Date | Parm | Value | Avg | % Avg

Enter search or view all records.

Click on id for station plot
#IDNameDateParmValueAvg% Avg
0MAGI1BIG WOOD-MAGIC DAM07-22-2021INFLOW (KAF)72924
1LWRI1LITTLE WOOD-LITTLE WOOD DAM07-22-2021INFLOW (KAF)51534
2RIDI1WILLOW CREEK-RIRIE DAM07-22-2021INFLOW (KAF)2636
3HOTI1BRUNEAU-NEAR HOT SPRINGS07-22-2021DISCHARGE (KAF)92240
4HWRI1BIG LOST-AT HOWELL RANCH NEAR CHILLY07-22-2021DISCHARGE (KAF)174042
5PIHI1PORTNEUF-AT POCATELLO07-22-2021DISCHARGE (KAF)133143
6HALI1BIG WOOD-AT HAILEY07-22-2021DISCHARGE (KAF)295849
7MYKO3MCKAY CREEK-NEAR PILOT ROCK07-22-2021DISCHARGE (KAF)0151
8TRYO3GRANDE RONDE-TROY07-22-2021DISCHARGE (KAF)10620552
9TONW1OKANOGAN-NEAR TONASKET07-22-2021DISCHARGE (KAF)16831653
10LAUW1KETTLE-AT LAURIER07-22-2021DISCHARGE (KAF)8716054
11TCHW1WALLA WALLA-NEAR TOUCHET07-22-2021DISCHARGE (KAF)61155
12SERO3JOHN DAY-AT SERVICE CK07-22-2021DISCHARGE (KAF)356255
13CHDW1CHELAN-LAKE CHELAN DAM07-22-2021INFLOW (KAF)14325157
14FCFM8NF FLATHEAD-NEAR COLUMBIA FALLS07-22-2021DISCHARGE (KAF)18732358
15DEDI1DEADWOOD-NEAR LOWMAN07-22-2021INFLOW (KAF)122059
16OWYO3OWYHEE-OWYHEE DAM07-22-2021INFLOW (KAF)325162
17LYDM8KOOTENAI-LIBBY DAM07-22-2021INFLOW (KAF)1130179063
18EMMI1PAYETTE-NEAR EMMETT07-22-2021DISCHARGE (KAF)25640763
19DLGM8CLARK FORK-AT DEER LODGE07-22-2021DISCHARGE (KAF)294664
20LEOI1KOOTENAI-AT LEONIA07-22-2021DISCHARGE (KAF)1494229265
21MONO3NF JOHN DAY-AT MONUMENT07-22-2021DISCHARGE (KAF)243766
22WGCM8MF FLATHEAD-NEAR WEST GLACIER07-22-2021DISCHARGE (KAF)18126967
23KERM8FLATHEAD-SELI’Š KSANKA QLISPE’ DAM07-22-2021INFLOW (KAF)979146667
24ARDW1ENTIAT-NEAR ARDENVOIR07-22-2021DISCHARGE (KAF)233567
25JLKW4SNAKE-JACKSON LAKE AT DAM07-22-2021INFLOW (KAF)11116467
26WHBI1SALMON-AT WHITEBIRD07-22-2021DISCHARGE (KAF)867126968
27DWRI1NF CLEARWATER-DWORSHAK DAM07-22-2021INFLOW (KAF)25937769
28HHWM8SF FLATHEAD-HUNGRY HORSE DAM07-22-2021INFLOW (KAF)18626072
29ALFW1PEND OREILLE-ALBENI FALLS DAM07-22-2021INFLOW (KAF)2468345172
30LLKW1SPOKANE-AT LONGLAKE07-22-2021INFLOW (KAF)43861272
31PATW1METHOW-NEAR PATEROS07-22-2021DISCHARGE (KAF)9813672
32PESW1WENATCHEE-AT PESHASTIN07-22-2021DISCHARGE (KAF)21229572
33ORFI1CLEARWATER-AT OROFINO07-22-2021DISCHARGE (KAF)37952472
34NOXM8CLARK FORK-NOXON RAPIDS DAM07-22-2021INFLOW (KAF)2175299073
35CHJW1COLUMBIA-CHIEF JOSEPH DAM07-22-2021INFLOW (KAF)151672068373
36RRHW1COLUMBIA-ROCKY REACH DAM07-22-2021INFLOW (KAF)157722149173
37PRWW1COLUMBIA-PRIEST RAPIDS DAM07-22-2021INFLOW (KAF)160952219173
38IPDI1HENRYS FORK-ISLAND PARK DAM07-22-2021INFLOW (KAF)10514573
39GCDW1COLUMBIA-GRAND COULEE DAM07-22-2021INFLOW (KAF)158622141874
40WELW1COLUMBIA-WELLS DAM07-22-2021INFLOW (KAF)154532095074
41WANW1COLUMBIA-WANAPUM DAM07-22-2021INFLOW (KAF)160872174574
42BONO3COLUMBIA-BONNEVILLE DAM07-22-2021INFLOW (KAF)231863084475
43CFMM8FLATHEAD-AT COLUMBIA FALLS07-22-2021DISCHARGE (KAF)941123476
44CABI1CLARK FORK-CABINET GORGE DAM07-22-2021INFLOW (KAF)2397317376
45SATI1ST MARIES-NEAR SANTA07-22-2021DISCHARGE (KAF)131876
46MCDW1COLUMBIA-MCNARY DAM07-22-2021INFLOW (KAF)218352888476
47JDAO3COLUMBIA-JOHN DAY DAM07-22-2021INFLOW (KAF)222072936476
48SRGM8CLARK FORK-AT ST REGIS07-22-2021DISCHARGE (KAF)64083277
49TEAI1TETON-NEAR ST. ANTHONY07-22-2021DISCHARGE (KAF)12816677
50GIBO3UMATILLA-NEAR GIBBON07-22-2021DISCHARGE (KAF)101277
51TDAO3COLUMBIA-THE DALLES DAM07-22-2021INFLOW (KAF)227962976577
52PITW1KLICKITAT-NEAR PITT07-22-2021DISCHARGE (KAF)14919377
53PRTI1PRIEST-NEAR PRIEST RIVER07-22-2021DISCHARGE (KAF)13116678
54ARAI1SF BOISE-ANDERSON RANCH DAM07-22-2021INFLOW (KAF)587478
55ANAW1SNAKE-NEAR ANATONE07-22-2021DISCHARGE (KAF)3719474378
56BITM8BITTERROOT-NEAR MISSOULA07-22-2021DISCHARGE (KAF)18423479
57COEI1COEUR D ALENE-COEUR D ALENE LAKE07-22-2021INFLOW (KAF)18423379
58BELM8CLARK FORK-BELOW MISSOULA07-22-2021DISCHARGE (KAF)51063580
59STRM8ST. REGIS-NEAR ST. REGIS07-22-2021DISCHARGE (KAF)253180
60ABOM8CLARK FORK-ABOVE MISSOULA07-22-2021DISCHARGE (KAF)32539582
61UNDW1WHITE SALMON-NEAR UNDERWOOD07-22-2021DISCHARGE (KAF)13115982
62REXI1HENRYS FORK-AT REXBURG07-22-2021DISCHARGE (KAF)31937984
63BIGI1BOISE-AT GLENWOOD BRIDGE07-22-2021DISCHARGE (KAF)12314585
64PARI1BOISE-NEAR PARMA07-22-2021DISCHARGE (KAF)18722185
65BERO3MALHEUR-AGENCY VALLEY DAM07-22-2021INFLOW (KAF)6785
66WSRI1WEISER-NEAR WEISER07-22-2021DISCHARGE (KAF)445185
67NACW1NACHES-NEAR NACHES07-22-2021DISCHARGE (KAF)10412186
68ANTI1HENRYS FORK-AT ST. ANTHONY07-22-2021DISCHARGE (KAF)27732186
69TNAW1TEANAWAY-BELOW FORKS07-22-2021DISCHARGE (KAF)81087
70MACI1BIG LOST-MACKAY RESERVOIR NEAR MACKAY07-22-2021INFLOW (KAF)242887
71LGSW1SNAKE-LITTLE GOOSE DAM07-22-2021INFLOW (KAF)5154590187
72LMNW1SNAKE-LOWER MONUMENTAL DAM07-22-2021INFLOW (KAF)5166591987
73BONM8BLACKFOOT-NEAR BONNER07-22-2021DISCHARGE (KAF)15918188
74LGDW1SNAKE-LOWER GRANITE DAM07-22-2021INFLOW (KAF)5137586088
75EASW1YAKIMA-AT EASTON07-22-2021DISCHARGE (KAF)647289
76CHEI1FALL RIVER-NEAR CHESTER07-22-2021DISCHARGE (KAF)717989
77IHDW1SNAKE-ICE HARBOR DAM07-22-2021INFLOW (KAF)5166582489
78PDTO3UMATILLA-AT PENDLETON07-22-2021DISCHARGE (KAF)121489
79KIOW1YAKIMA-AT KIONA07-22-2021DISCHARGE (KAF)41846790
80WEII1SNAKE-AT WEISER07-22-2021DISCHARGE (KAF)2775307990
81RCCM8ROCK CREEK-NEAR CLINTON07-22-2021DISCHARGE (KAF)636991
82PARW1YAKIMA-NEAR PARKER07-22-2021DISCHARGE (KAF)15416692
83CSDI1NF PAYETTE-CASCADE DAM07-22-2021INFLOW (KAF)616792
84BRNI1SNAKE-BROWNLEE DAM07-22-2021INFLOW (KAF)2897313492
85SWAI1SNAKE-BELOW SWAN FALLS07-22-2021DISCHARGE (KAF)1980210394
86HODO3HOOD-NEAR TUCKER BRIDGE07-22-2021DISCHARGE (KAF)949895
87MODO3DESCHUTES-AT MOODY NR BIGGS07-22-2021DISCHARGE (KAF)1079111197
88HEII1SNAKE-NEAR HEISE07-22-2021DISCHARGE (KAF)1580160798
89PLDI1SF SNAKE-PALISADES DAM07-22-2021INFLOW (KAF)1274129299
90CLUW1CLE ELUM-CLE ELUM LAKE07-22-2021INFLOW (KAF)7878100
91SIFI1SNAKE-AB EAGLE ROCK NR IDAHO FALLS07-22-2021DISCHARGE (KAF)11881182100
92UMTW1YAKIMA-AT UMTANUM07-22-2021DISCHARGE (KAF)537529101
93CLFW1NACHES-NEAR CLIFFDEL07-22-2021DISCHARGE (KAF)8685101
94BUDW1BUMPING-BUMPING LAKE DAM07-22-2021INFLOW (KAF)2322103
95RILW1TIETON-RIMROCK LAKE NEAR RIMROCK07-22-2021INFLOW (KAF)7067105
96AFRI1SNAKE-AMERICAN FALLS RESERVOIR07-22-2021INFLOW (KAF)13091239106
97WRMO3MALHEUR-WARM SPRINGS DAM07-22-2021INFLOW (KAF)54109
98ALPW4SNAKE-NEAR ALPINE07-22-2021DISCHARGE (KAF)1046937112
99SHYI1SNAKE-NEAR SHELLEY07-22-2021DISCHARGE (KAF)1079937115
100JKSW4SNAKE-NEAR JACKSON07-22-2021DISCHARGE (KAF)950786121
101SNAI1SNAKE-AT BLACKFOOT07-22-2021DISCHARGE (KAF)709583122
102BFTI1SNAKE-NEAR BLACKFOOT07-22-2021DISCHARGE (KAF)716578124
103SPDI1CLEARWATER-AT SPALDING07-22-2021DISCHARGE (KAF)14231052135
104KEDW1YAKIMA-KEECHELUS LAKE07-22-2021INFLOW (KAF)3828139
105KADW1KACHESS-KACHESS DAM07-22-2021INFLOW (KAF)2718153
106MILI1SNAKE-AT MILNER07-22-2021DISCHARGE (KAF)360151238
107UMAO3UMATILLA-NEAR UMATILLA07-22-2021DISCHARGE (KAF)4212334
108BFEI1KOOTENAI-AT BONNERS FERRY07-22-2021STAGE (FT)MMM
109DRMM8CLARK FORK-NR DRUMMOND07-22-2021DISCHARGE (KAF)90MM
110HOPI1PEND OREILLE-PEND OREILLE LAKE NR HOPE07-22-2021LAKE ELEVATION (FT)MMM
111SPOW1SPOKANE-AT SPOKANE07-22-2021DISCHARGE (KAF)288MM
112SJMI1ST JOE-AT ST MARIES07-22-2021STAGE (FT)MMM
113CIBW1COLUMBIA-AT INTL BOUNDARY07-22-2021DISCHARGE (KAF)15329MM
114LUCI1BOISE-LUCKY PEAK DAM07-22-2021INFLOW (KAF)239MM
115BULO3BULLY CREEK-BULLY CREEK DAM07-22-2021INFLOW (KAF)M0M